Pagrindinis puslapis
METAR-TAF:

METAR-TAF

Oro uostai :

Apartado, Kolumbija

platuma: 07-49N, ilguma: 076-42W, Aukštis: 20 m

Dabartinis oras

Ataskaita buvo paskelbta 6 valandos ir 6 minutes, ne 23:00 UTC
Vėjas 9 kt iš Šiaurės
Temperatūra 28°C
Drėgmė 84%
Slėgis 1007 hPa
Matomumas 10 km arba daugiau
Išsisklaidę debesys ne aukštis 2000 ft

METAR: SKLC 062300Z 35009KT 9999 SCT020 28/25 A2975

Laikas: 00:06 (05:06 UTC)


TAF: trūkstamas

Orai ataskaitas ir orų prognozės (METAR, TAF).

turimą stotys yra geltonos ir raudonos taškus žemėlapyje.

Perkelti pele per norėdami pamatyti stoties vardą.

Tada spustelėkite, norėdami matyti oro stebėjimo ir prognozės.

Norėdami pakeisti žemėlapį: spustelėkite ant žalios mygtukų su juodo kryžiaus žemyn,; žalią mygtuką su brūkšneliu, jei norite nutolinti; arba žalių rodyklių gretimoms žemėlapius.


METAR-TAF: